Location: Lassen National Park
(40.5158°N, 121.4639°W)
Time: 00:26:27
(UTC-07:00)

ISS - Visible Passes

Search period start: 21 March 2019 00:00
Search period end: 31 March 2019 00:00
Orbit: 406 x 411 km, 51.6° (Epoch: 21 March)

Date Brightness Start Highest point End Pass type
(mag) Time Alt. Az. Time Alt. Az. Time Alt. Az.
21 Mar -3.0 20:07:43 10° SSW 20:10:42 32° SE 20:12:49 16° E visible
21 Mar -1.1 21:44:16 10° W 21:45:37 20° WNW 21:45:37 20° WNW visible
22 Mar -3.0 20:52:52 10° WSW 20:56:05 50° NNW 20:57:22 30° NNE visible
23 Mar -3.8 20:01:40 10° SW 20:04:58 88° SE 20:08:17 10° NE visible
23 Mar -1.2 21:39:27 10° WNW 21:41:40 19° NNW 21:41:40 19° NNW visible
24 Mar -1.8 20:47:46 10° W 20:50:35 26° NNW 20:53:02 12° NNE visible
25 Mar -2.5 19:56:13 10° W 19:59:21 39° NNW 20:02:28 10° NE visible
25 Mar -1.0 21:34:48 10° NW 21:36:36 14° N 21:36:59 14° N visible
26 Mar -1.2 20:42:58 10° WNW 20:45:12 17° NNW 20:47:26 10° NNE visible
27 Mar -1.5 19:51:11 10° WNW 19:53:51 22° NNW 19:56:29 10° NNE visible
27 Mar -1.0 21:29:56 10° NNW 21:31:20 12° N 21:31:49 12° N visible
28 Mar -1.0 20:38:14 10° NW 20:39:52 13° N 20:41:29 10° NNE visible
29 Mar -1.1 21:24:27 10° NNW 21:26:01 13° N 21:26:22 13° NNE visible
30 Mar -1.1 20:33:09 10° NNW 20:34:32 12° N 20:35:56 10° NNE visible
30 Mar -0.6 22:09:27 10° NNW 22:09:57 13° NNW 22:09:57 13° NNW visible
